Time,TemperatureF,DewpointF,PressureIn,WindDirection,WindDirectionDegrees,WindSpeedMPH,WindSpeedGustMPH,Humidity,HourlyPrecipIn,Conditions,Clouds,dailyrainin,SoftwareType,DateUTC
2013-06-11 00:01:00,79.0,75.2,30.09,SSE,157,3.4,4.3,89,0.00,,,0.00,Graphweather,2013-06-11 04:01:00,
2013-06-11 00:02:00,78.8,75.2,30.09,ENE,67,2.7,2.7,89,0.00,,,0.00,Graphweather,2013-06-11 04:02:00,
2013-06-11 00:03:00,78.8,75.2,30.09,SSW,202,3.1,4.7,89,0.00,,,0.00,Graphweather,2013-06-11 04:03:00,
2013-06-11 00:08:00,78.8,75.2,30.06,SSE,157,2.9,5.4,89,0.00,,,0.00,Graphweather,2013-06-11 04:08:00,
2013-06-11 00:09:00,78.8,75.2,30.06,ESE,112,2.7,3.1,89,0.00,,,0.00,Graphweather,2013-06-11 04:09:00,
2013-06-11 00:11:00,78.8,75.2,30.06,SSW,202,2.9,2.9,89,0.00,,,0.00,Graphweather,2013-06-11 04:11:00,
2013-06-11 00:17:00,78.8,75.2,30.06,SSE,157,2.5,3.4,89,0.00,,,0.00,Graphweather,2013-06-11 04:17:00,
2013-06-11 00:22:00,78.8,75.2,30.06,ESE,112,3.4,4.3,89,0.00,,,0.00,Graphweather,2013-06-11 04:22:00,
2013-06-11 00:27:00,78.6,75.2,30.06,WSW,247,2.9,3.4,89,0.00,,,0.00,Graphweather,2013-06-11 04:27:00,
2013-06-11 00:32:00,78.6,75.2,30.06,SE,135,2.2,2.2,89,0.00,,,0.00,Graphweather,2013-06-11 04:32:00,
2013-06-11 00:37:00,78.8,75.2,30.03,ENE,67,3.6,3.8,89,0.00,,,0.00,Graphweather,2013-06-11 04:37:00,
2013-06-11 00:42:00,78.6,75.2,30.03,SSW,202,2.2,2.9,89,0.00,,,0.00,Graphweather,2013-06-11 04:42:00,
2013-06-11 00:47:00,78.8,75.2,30.03,SSE,157,4.3,6.5,89,0.00,,,0.00,Graphweather,2013-06-11 04:47:00,
2013-06-11 00:52:00,78.6,75.2,30.03,ESE,112,3.8,6.5,89,0.00,,,0.00,Graphweather,2013-06-11 04:52:00,
2013-06-11 00:58:00,78.6,75.2,30.03,East,90,2.2,2.7,89,0.00,,,0.00,Graphweather,2013-06-11 04:58:00,
2013-06-11 01:03:00,78.6,75.2,30.03,East,90,3.4,3.4,90,0.00,,,0.00,Graphweather,2013-06-11 05:03:00,
2013-06-11 01:08:00,78.4,75.2,30.03,NE,45,2.9,3.6,89,0.00,,,0.00,Graphweather,2013-06-11 05:08:00,
2013-06-11 01:13:00,78.4,75.2,30.03,ENE,67,2.9,5.6,90,0.00,,,0.00,Graphweather,2013-06-11 05:13:00,
2013-06-11 01:18:00,78.4,75.2,30.03,WSW,247,2.0,2.9,89,0.00,,,0.00,Graphweather,2013-06-11 05:18:00,
2013-06-11 01:23:00,78.4,75.2,30.03,NNE,22,2.9,3.8,90,0.00,,,0.00,Graphweather,2013-06-11 05:23:00,
2013-06-11 01:28:00,78.4,75.2,30.03,SSW,202,3.1,3.1,90,0.00,,,0.00,Graphweather,2013-06-11 05:28:00,
2013-06-11 01:33:00,78.3,75.2,30.03,East,90,2.5,4.3,90,0.00,,,0.00,Graphweather,2013-06-11 05:33:00,
2013-06-11 01:38:00,78.3,75.2,30.03,South,180,2.7,2.7,90,0.00,,,0.00,Graphweather,2013-06-11 05:38:00,
2013-06-11 01:44:00,78.3,75.2,30.03,ESE,112,2.2,2.7,91,0.00,,,0.00,Graphweather,2013-06-11 05:44:00,
2013-06-11 01:49:00,78.3,75.2,30.03,ENE,67,2.7,2.7,90,0.00,,,0.00,Graphweather,2013-06-11 05:49:00,
2013-06-11 08:16:00,79.7,78.8,30.03,East,90,1.3,1.3,96,0.00,,,0.04,Graphweather,2013-06-11 12:16:00,
2013-06-11 08:21:00,80.4,78.8,30.03,SSE,157,1.3,2.7,95,0.00,,,0.04,Graphweather,2013-06-11 12:21:00,
2013-06-11 08:27:00,80.4,78.8,30.03,East,90,2.5,2.9,95,0.00,,,0.04,Graphweather,2013-06-11 12:27:00,
2013-06-11 08:32:00,80.6,78.8,30.03,SE,135,2.2,3.4,93,0.00,,,0.04,Graphweather,2013-06-11 12:32:00,
2013-06-11 08:37:00,80.6,78.8,30.06,SSW,202,1.3,2.0,93,0.00,,,0.04,Graphweather,2013-06-11 12:37:00,
2013-06-11 08:42:00,81.3,78.8,30.06,SSE,157,3.1,4.0,91,0.00,,,0.04,Graphweather,2013-06-11 12:42:00,
2013-06-11 08:47:00,81.7,78.8,30.06,NNE,22,2.7,3.4,90,0.00,,,0.04,Graphweather,2013-06-11 12:47:00,
2013-06-11 08:52:00,82.0,78.8,30.06,NE,45,2.9,4.9,90,0.00,,,0.04,Graphweather,2013-06-11 12:52:00,
2013-06-11 08:58:00,82.4,78.8,30.06,ESE,112,2.9,4.7,88,0.00,,,0.04,Graphweather,2013-06-11 12:58:00,
2013-06-11 09:03:00,81.7,78.8,30.06,NE,45,2.9,2.9,88,0.00,,,0.04,Graphweather,2013-06-11 13:03:00,
2013-06-11 09:09:00,82.0,78.8,30.06,SSE,157,4.0,4.0,88,0.00,,,0.04,Graphweather,2013-06-11 13:09:00,
2013-06-11 09:14:00,81.3,77.0,30.06,SSE,157,4.5,5.4,87,0.00,,,0.04,Graphweather,2013-06-11 13:14:00,
2013-06-11 09:19:00,80.1,77.0,30.06,SSE,157,2.5,4.3,89,0.00,,,0.04,Graphweather,2013-06-11 13:19:00,
2013-06-11 09:25:00,79.2,77.0,30.06,NE,45,2.9,5.8,91,0.00,,,0.04,Graphweather,2013-06-11 13:25:00,
2013-06-11 09:31:00,78.8,77.0,30.06,East,90,2.0,2.0,93,0.00,,,0.04,Graphweather,2013-06-11 13:31:00,
2013-06-11 09:36:00,78.4,77.0,30.06,SSE,157,2.0,2.5,93,0.00,,,0.04,Graphweather,2013-06-11 13:36:00,
2013-06-11 09:42:00,79.0,77.0,30.06,East,90,3.1,3.1,94,0.00,,,0.04,Graphweather,2013-06-11 13:42:00,
2013-06-11 09:47:00,79.2,77.0,30.06,East,90,2.2,2.9,94,0.00,,,0.04,Graphweather,2013-06-11 13:47:00,
2013-06-11 09:53:00,80.1,78.8,30.06,East,90,1.3,2.2,94,0.00,,,0.04,Graphweather,2013-06-11 13:53:00,
2013-06-11 09:59:00,80.1,78.8,30.06,ESE,112,2.5,2.9,93,0.00,,,0.04,Graphweather,2013-06-11 13:59:00,
2013-06-11 10:04:00,80.6,78.8,30.06,SE,135,2.2,2.2,92,0.00,,,0.04,Graphweather,2013-06-11 14:04:00,
2013-06-11 10:09:00,80.8,78.8,30.09,East,90,2.7,3.4,91,0.00,,,0.04,Graphweather,2013-06-11 14:09:00,
2013-06-11 10:14:00,81.1,78.8,30.09,SSE,157,3.1,4.0,90,0.00,,,0.04,Graphweather,2013-06-11 14:14:00,
2013-06-11 10:20:00,81.7,78.8,30.09,SSW,202,2.5,3.4,91,0.00,,,0.04,Graphweather,2013-06-11 14:20:00,
2013-06-11 10:25:00,82.6,78.8,30.06,SSE,157,2.5,3.8,90,0.00,,,0.04,Graphweather,2013-06-11 14:25:00,
2013-06-11 10:30:00,82.6,78.8,30.06,East,90,2.5,2.5,90,0.00,,,0.04,Graphweather,2013-06-11 14:30:00,
2013-06-11 10:36:00,83.8,80.6,30.06,ESE,112,2.5,4.9,87,0.00,,,0.04,Graphweather,2013-06-11 14:36:00,
2013-06-11 10:41:00,84.0,80.6,30.09,ESE,112,3.6,3.6,87,0.00,,,0.04,Graphweather,2013-06-11 14:41:00,
2013-06-11 10:46:00,83.1,78.8,30.09,East,90,1.1,3.8,88,0.00,,,0.04,Graphweather,2013-06-11 14:46:00,
2013-06-11 10:51:00,82.0,78.8,30.09,East,90,2.7,3.4,87,0.00,,,0.04,Graphweather,2013-06-11 14:51:00,
2013-06-11 10:56:00,81.5,78.8,30.09,ENE,67,2.7,2.9,87,0.00,,,0.04,Graphweather,2013-06-11 14:56:00,
2013-06-11 11:01:00,81.3,77.0,30.09,NE,45,2.9,5.6,86,0.00,,,0.04,Graphweather,2013-06-11 15:01:00,
2013-06-11 11:07:00,81.1,77.0,30.09,SE,135,2.2,2.7,86,0.00,,,0.04,Graphweather,2013-06-11 15:07:00,
2013-06-11 11:12:00,79.5,77.0,30.09,SSE,157,2.5,2.5,92,0.04,,,0.08,Graphweather,2013-06-11 15:12:00,
2013-06-11 11:17:00,79.3,77.0,30.09,East,90,1.6,0.0,93,0.04,,,0.08,Graphweather,2013-06-11 15:17:00,
2013-06-11 11:22:00,80.1,78.8,30.09,SE,135,1.3,2.7,94,0.04,,,0.08,Graphweather,2013-06-11 15:22:00,
2013-06-11 11:28:00,80.1,78.8,30.09,ESE,112,2.9,3.6,93,0.04,,,0.08,Graphweather,2013-06-11 15:28:00,
2013-06-11 11:33:00,80.4,78.8,30.09,East,90,2.7,3.4,92,0.04,,,0.08,Graphweather,2013-06-11 15:33:00,
2013-06-11 11:38:00,81.1,78.8,30.06,SE,135,2.7,3.8,92,0.04,,,0.08,Graphweather,2013-06-11 15:38:00,
2013-06-11 11:43:00,81.3,78.8,30.06,South,180,2.0,2.2,92,0.04,,,0.08,Graphweather,2013-06-11 15:43:00,
2013-06-11 11:48:00,81.3,78.8,30.06,SSW,202,2.9,3.1,89,0.04,,,0.08,Graphweather,2013-06-11 15:48:00,
2013-06-11 11:54:00,81.3,78.8,30.06,ESE,112,1.6,2.0,89,0.00,,,0.08,Graphweather,2013-06-11 15:54:00,
2013-06-11 11:59:00,81.5,78.8,30.06,ESE,112,2.2,3.8,90,0.00,,,0.08,Graphweather,2013-06-11 15:59:00,
2013-06-11 12:05:00,79.3,77.0,30.06,East,90,1.6,2.7,94,0.00,,,0.08,Graphweather,2013-06-11 16:05:00,
2013-06-11 12:10:00,79.3,77.0,30.06,East,90,3.1,3.1,94,0.00,,,0.08,Graphweather,2013-06-11 16:10:00,
2013-06-11 12:15:00,81.0,78.8,30.06,SSE,157,2.7,2.7,93,0.00,,,0.08,Graphweather,2013-06-11 16:15:00,
2013-06-11 12:20:00,81.5,78.8,30.06,SSE,157,2.9,2.9,91,0.00,,,0.08,Graphweather,2013-06-11 16:20:00,
2013-06-11 12:26:00,81.0,78.8,30.06,East,90,2.2,2.5,92,0.00,,,0.08,Graphweather,2013-06-11 16:26:00,
2013-06-11 12:31:00,80.6,78.8,30.06,ESE,112,2.2,3.1,93,0.00,,,0.08,Graphweather,2013-06-11 16:31:00,
2013-06-11 12:36:00,80.6,78.8,30.06,ESE,112,4.0,6.0,91,0.00,,,0.08,Graphweather,2013-06-11 16:36:00,
2013-06-11 12:41:00,81.3,78.8,30.06,East,90,2.2,5.6,90,0.00,,,0.08,Graphweather,2013-06-11 16:41:00,
2013-06-11 12:47:00,80.4,78.8,30.06,WNW,292,3.1,5.4,92,0.00,,,0.08,Graphweather,2013-06-11 16:47:00,
2013-06-11 12:52:00,79.0,77.0,30.06,East,90,2.5,0.0,93,0.04,,,0.24,Graphweather,2013-06-11 16:52:00,
2013-06-11 12:57:00,77.7,77.0,30.06,SE,135,1.1,2.0,96,0.17,,,0.37,Graphweather,2013-06-11 16:57:00,
2013-06-11 13:03:00,77.4,77.0,30.06,SSE,157,2.5,2.9,97,0.21,,,0.41,Graphweather,2013-06-11 17:03:00,
2013-06-11 13:09:00,77.4,77.0,30.03,SSE,157,2.2,4.0,97,0.25,,,0.45,Graphweather,2013-06-11 17:09:00,
2013-06-11 13:15:00,77.5,77.0,30.03,East,90,3.1,4.0,97,0.25,,,0.45,Graphweather,2013-06-11 17:15:00,
2013-06-11 13:20:00,77.5,77.0,30.03,SSW,202,2.7,0.0,98,0.25,,,0.45,Graphweather,2013-06-11 17:20:00,
2013-06-11 13:26:00,77.9,78.8,30.06,East,90,3.1,4.0,98,0.25,,,0.45,Graphweather,2013-06-11 17:26:00,
2013-06-11 13:31:00,78.8,78.8,30.06,East,90,3.1,4.9,98,0.25,,,0.45,Graphweather,2013-06-11 17:31:00,
2013-06-11 13:37:00,79.3,78.8,30.06,East,90,3.4,3.4,97,0.25,,,0.45,Graphweather,2013-06-11 17:37:00,
2013-06-11 13:42:00,79.9,78.8,30.06,South,180,3.8,0.0,96,0.25,,,0.45,Graphweather,2013-06-11 17:42:00,
2013-06-11 13:48:00,80.8,78.8,30.06,SSE,157,2.7,2.7,95,0.25,,,0.45,Graphweather,2013-06-11 17:48:00,
2013-06-11 13:54:00,81.3,80.6,30.06,SE,135,3.4,3.4,95,0.00,,,0.45,Graphweather,2013-06-11 17:54:00,
2013-06-11 13:59:00,82.0,80.6,30.06,ESE,112,4.0,4.0,93,0.00,,,0.45,Graphweather,2013-06-11 17:59:00,
2013-06-11 14:04:00,82.4,78.8,30.06,East,90,3.8,3.8,90,0.00,,,0.45,Graphweather,2013-06-11 18:04:00,
2013-06-11 14:09:00,82.6,78.8,30.06,ESE,112,2.9,5.6,90,0.00,,,0.45,Graphweather,2013-06-11 18:09:00,
2013-06-11 14:15:00,83.1,80.6,30.06,NNE,22,3.4,3.8,89,0.00,,,0.45,Graphweather,2013-06-11 18:15:00,
2013-06-11 14:20:00,83.1,78.8,30.06,SSE,157,2.5,3.8,88,0.00,,,0.45,Graphweather,2013-06-11 18:20:00,
2013-06-11 14:25:00,84.0,80.6,30.06,SSE,157,3.1,6.9,88,0.00,,,0.45,Graphweather,2013-06-11 18:25:00,
2013-06-11 14:30:00,84.6,80.6,30.06,West,270,2.5,2.5,86,0.00,,,0.45,Graphweather,2013-06-11 18:30:00,
2013-06-11 14:36:00,83.7,78.8,30.06,East,90,3.1,4.3,85,0.00,,,0.45,Graphweather,2013-06-11 18:36:00,
2013-06-11 14:41:00,83.3,78.8,30.06,ESE,112,2.9,10.1,86,0.00,,,0.45,Graphweather,2013-06-11 18:41:00,
2013-06-11 14:46:00,82.9,78.8,30.06,SSW,202,3.1,3.6,87,0.00,,,0.45,Graphweather,2013-06-11 18:46:00,
2013-06-11 14:51:00,83.3,80.6,30.06,East,90,2.7,3.1,87,0.00,,,0.45,Graphweather,2013-06-11 18:51:00,
2013-06-11 14:56:00,84.0,80.6,30.03,East,90,3.4,3.8,86,0.00,,,0.45,Graphweather,2013-06-11 18:56:00,
2013-06-11 15:02:00,84.7,78.8,30.03,SE,135,3.4,4.7,83,0.00,,,0.45,Graphweather,2013-06-11 19:02:00,
2013-06-11 15:07:00,85.1,78.8,30.03,SSE,157,3.1,3.1,82,0.00,,,0.45,Graphweather,2013-06-11 19:07:00,
2013-06-11 15:12:00,84.0,78.8,30.03,ESE,112,4.0,4.0,81,0.00,,,0.45,Graphweather,2013-06-11 19:12:00,
2013-06-11 15:17:00,83.7,78.8,30.03,SE,135,3.4,5.8,82,0.00,,,0.45,Graphweather,2013-06-11 19:17:00,
2013-06-11 15:23:00,83.3,78.8,30.03,ENE,67,2.5,2.5,84,0.00,,,0.45,Graphweather,2013-06-11 19:23:00,
2013-06-11 15:28:00,83.1,77.0,30.03,ENE,67,2.9,5.8,83,0.00,,,0.45,Graphweather,2013-06-11 19:28:00,
2013-06-11 15:33:00,82.9,78.8,30.03,WSW,247,2.7,4.3,84,0.00,,,0.45,Graphweather,2013-06-11 19:33:00,
2013-06-11 15:39:00,82.8,78.8,30.03,ESE,112,2.9,2.9,85,0.00,,,0.45,Graphweather,2013-06-11 19:39:00,
2013-06-11 15:44:00,82.8,78.8,30.03,East,90,2.2,2.5,86,0.00,,,0.45,Graphweather,2013-06-11 19:44:00,
2013-06-11 15:49:00,82.8,78.8,30.03,East,90,2.7,2.7,86,0.00,,,0.45,Graphweather,2013-06-11 19:49:00,
2013-06-11 15:55:00,82.8,78.8,30.03,East,90,2.0,3.6,86,0.00,,,0.45,Graphweather,2013-06-11 19:55:00,
2013-06-11 16:00:00,82.9,78.8,30.03,SSE,157,2.9,3.1,86,0.00,,,0.45,Graphweather,2013-06-11 20:00:00,
2013-06-11 16:05:00,82.0,78.8,30.03,ESE,112,3.8,5.4,87,0.00,,,0.45,Graphweather,2013-06-11 20:05:00,
2013-06-11 16:10:00,81.7,78.8,30.03,SSE,157,3.1,3.1,88,0.00,,,0.45,Graphweather,2013-06-11 20:10:00,
2013-06-11 16:16:00,81.5,78.8,30.03,SSW,202,2.2,2.7,88,0.00,,,0.45,Graphweather,2013-06-11 20:16:00,
2013-06-11 16:21:00,81.3,78.8,30.03,SE,135,3.6,3.6,89,0.00,,,0.45,Graphweather,2013-06-11 20:21:00,
2013-06-11 16:26:00,81.3,77.0,30.03,ESE,112,2.9,2.9,88,0.00,,,0.45,Graphweather,2013-06-11 20:26:00,
2013-06-11 16:31:00,81.5,78.8,30.03,East,90,3.4,3.4,88,0.00,,,0.45,Graphweather,2013-06-11 20:31:00,
2013-06-11 16:37:00,81.3,77.0,30.03,East,90,2.7,3.1,88,0.00,,,0.45,Graphweather,2013-06-11 20:37:00,
2013-06-11 16:42:00,81.1,77.0,30.03,SSW,202,2.5,2.9,88,0.00,,,0.45,Graphweather,2013-06-11 20:42:00,
2013-06-11 16:47:00,81.1,78.8,30.03,ENE,67,3.4,3.4,89,0.00,,,0.45,Graphweather,2013-06-11 20:47:00,
2013-06-11 16:52:00,81.0,78.8,30.03,ESE,112,2.2,6.0,89,0.00,,,0.45,Graphweather,2013-06-11 20:52:00,
2013-06-11 16:57:00,80.8,77.0,30.03,NNW,337,2.7,3.6,90,0.00,,,0.45,Graphweather,2013-06-11 20:57:00,
2013-06-11 17:03:00,80.6,77.0,30.03,ESE,112,3.1,3.8,90,0.00,,,0.45,Graphweather,2013-06-11 21:03:00,
2013-06-11 17:08:00,80.6,77.0,30.03,East,90,2.2,3.4,90,0.00,,,0.45,Graphweather,2013-06-11 21:08:00,
2013-06-11 17:13:00,80.6,77.0,30.03,East,90,2.5,2.7,90,0.00,,,0.45,Graphweather,2013-06-11 21:13:00,
2013-06-11 17:18:00,80.4,78.8,30.03,East,90,4.0,4.0,91,0.00,,,0.45,Graphweather,2013-06-11 21:18:00,
2013-06-11 17:24:00,80.2,77.0,30.03,WSW,247,3.4,3.4,92,0.00,,,0.45,Graphweather,2013-06-11 21:24:00,
2013-06-11 17:29:00,80.2,77.0,30.03,East,90,3.6,4.3,92,0.00,,,0.45,Graphweather,2013-06-11 21:29:00,
2013-06-11 17:34:00,79.9,77.0,30.03,East,90,2.2,4.9,92,0.00,,,0.45,Graphweather,2013-06-11 21:34:00,
2013-06-11 17:39:00,79.9,77.0,30.03,SSW,202,2.9,2.9,92,0.00,,,0.45,Graphweather,2013-06-11 21:39:00,
2013-06-11 17:45:00,79.7,78.8,30.03,East,90,3.4,4.7,93,0.00,,,0.45,Graphweather,2013-06-11 21:45:00,
2013-06-11 17:50:00,79.7,77.0,30.03,ENE,67,2.2,7.4,92,0.00,,,0.45,Graphweather,2013-06-11 21:50:00,
2013-06-11 17:55:00,79.7,77.0,30.03,SE,135,2.9,3.1,92,0.00,,,0.45,Graphweather,2013-06-11 21:55:00,
2013-06-11 18:01:00,79.5,77.0,30.03,SSE,157,2.2,3.6,93,0.00,,,0.45,Graphweather,2013-06-11 22:01:00,
2013-06-11 18:06:00,79.5,77.0,30.03,WNW,292,2.9,3.4,93,0.00,,,0.45,Graphweather,2013-06-11 22:06:00,
2013-06-11 18:11:00,79.3,77.0,30.03,South,180,2.7,3.4,93,0.00,,,0.45,Graphweather,2013-06-11 22:11:00,
2013-06-11 18:16:00,79.3,77.0,30.03,South,180,2.9,2.9,93,0.00,,,0.45,Graphweather,2013-06-11 22:16:00,
2013-06-11 18:22:00,79.2,77.0,30.03,ESE,112,2.2,2.5,93,0.00,,,0.45,Graphweather,2013-06-11 22:22:00,
2013-06-11 18:27:00,79.0,77.0,30.03,SW,225,2.5,3.6,92,0.00,,,0.45,Graphweather,2013-06-11 22:27:00,
2013-06-11 18:43:00,78.8,77.0,30.03,East,90,3.6,4.0,94,0.00,,,0.45,Graphweather,2013-06-11 22:43:00,
2013-06-11 18:49:00,78.3,77.0,30.03,ESE,112,3.6,3.6,93,0.00,,,0.45,Graphweather,2013-06-11 22:49:00,
2013-06-11 18:54:00,78.3,77.0,30.06,WSW,247,2.7,4.3,93,0.00,,,0.45,Graphweather,2013-06-11 22:54:00,
2013-06-11 18:59:00,78.1,77.0,30.06,East,90,2.2,2.5,94,0.00,,,0.45,Graphweather,2013-06-11 22:59:00,
2013-06-11 19:04:00,78.1,77.0,30.06,ESE,112,2.9,3.4,95,0.00,,,0.45,Graphweather,2013-06-11 23:04:00,
2013-06-11 19:10:00,78.1,77.0,30.06,SW,225,2.9,2.9,95,0.00,,,0.45,Graphweather,2013-06-11 23:10:00,
2013-06-11 19:15:00,77.9,77.0,30.06,SW,225,2.2,2.5,95,0.00,,,0.45,Graphweather,2013-06-11 23:15:00,
2013-06-11 19:20:00,78.1,77.0,30.06,NNE,22,2.9,3.6,96,0.00,,,0.45,Graphweather,2013-06-11 23:20:00,
2013-06-11 19:26:00,78.3,77.0,30.03,ESE,112,3.1,4.0,96,0.00,,,0.45,Graphweather,2013-06-11 23:26:00,
2013-06-11 19:43:00,78.3,77.0,30.03,East,90,2.5,4.3,95,0.00,,,0.45,Graphweather,2013-06-11 23:43:00,
2013-06-11 20:00:00,78.4,77.0,30.06,SSW,202,3.1,3.1,95,0.00,,,0.45,Graphweather,2013-06-12 00:00:00,
2013-06-11 20:16:00,78.1,77.0,30.06,ESE,112,2.5,3.8,96,0.00,,,0.45,Graphweather,2013-06-12 00:16:00,
2013-06-11 20:21:00,78.1,77.0,30.06,East,90,3.1,4.9,97,0.00,,,0.45,Graphweather,2013-06-12 00:21:00,
2013-06-11 20:26:00,78.3,77.0,30.06,East,90,2.2,4.3,97,0.00,,,0.45,Graphweather,2013-06-12 00:26:00,
2013-06-11 20:32:00,78.4,77.0,30.06,SE,135,3.4,4.0,94,0.00,,,0.45,Graphweather,2013-06-12 00:32:00,
2013-06-11 20:37:00,78.4,77.0,30.06,ESE,112,2.9,4.0,94,0.00,,,0.45,Graphweather,2013-06-12 00:37:00,
2013-06-11 20:42:00,78.4,77.0,30.06,South,180,3.1,4.3,93,0.00,,,0.45,Graphweather,2013-06-12 00:42:00,
2013-06-11 20:47:00,78.4,77.0,30.06,East,90,3.8,3.8,93,0.00,,,0.45,Graphweather,2013-06-12 00:47:00,
2013-06-11 20:52:00,78.4,77.0,30.06,SSE,157,3.4,3.4,94,0.00,,,0.45,Graphweather,2013-06-12 00:52:00,
2013-06-11 20:58:00,78.4,77.0,30.06,SSE,157,3.4,4.3,94,0.00,,,0.45,Graphweather,2013-06-12 00:58:00,
2013-06-11 21:13:00,78.4,77.0,30.03,NE,45,2.7,2.7,94,0.00,,,0.45,Graphweather,2013-06-12 01:13:00,
2013-06-11 21:19:00,78.4,77.0,30.03,ESE,112,2.7,3.8,93,0.00,,,0.45,Graphweather,2013-06-12 01:19:00,
2013-06-11 21:24:00,78.4,77.0,30.09,NE,45,2.9,3.6,93,0.00,,,0.45,Graphweather,2013-06-12 01:24:00,
2013-06-11 21:29:00,78.4,77.0,30.09,ENE,67,3.4,4.7,93,0.00,,,0.45,Graphweather,2013-06-12 01:29:00,
2013-06-11 21:35:00,78.4,77.0,30.09,WSW,247,3.1,4.9,93,0.00,,,0.45,Graphweather,2013-06-12 01:35:00,
2013-06-11 21:40:00,78.4,77.0,30.06,ENE,67,3.1,3.1,93,0.00,,,0.45,Graphweather,2013-06-12 01:40:00,
2013-06-11 21:45:00,78.4,75.2,30.06,ENE,67,3.6,3.6,92,0.00,,,0.45,Graphweather,2013-06-12 01:45:00,
2013-06-11 21:50:00,78.4,75.2,30.06,SSW,202,2.9,6.3,92,0.00,,,0.45,Graphweather,2013-06-12 01:50:00,
2013-06-11 21:55:00,78.4,75.2,30.03,East,90,2.9,2.9,92,0.00,,,0.45,Graphweather,2013-06-12 01:55:00,
2013-06-11 22:01:00,78.4,75.2,30.03,East,90,2.9,3.4,92,0.00,,,0.45,Graphweather,2013-06-12 02:01:00,
2013-06-11 22:06:00,78.4,75.2,30.03,SSE,157,2.9,3.4,92,0.00,,,0.45,Graphweather,2013-06-12 02:06:00,
2013-06-11 22:11:00,78.4,75.2,30.06,ESE,112,2.7,3.8,92,0.00,,,0.45,Graphweather,2013-06-12 02:11:00,
2013-06-11 22:16:00,78.4,77.0,30.06,South,180,3.4,3.8,93,0.00,,,0.45,Graphweather,2013-06-12 02:16:00,
2013-06-11 22:22:00,78.4,77.0,30.06,SE,135,3.6,3.8,93,0.00,,,0.45,Graphweather,2013-06-12 02:22:00,
2013-06-11 22:27:00,78.4,77.0,30.06,SE,135,2.5,2.9,93,0.00,,,0.45,Graphweather,2013-06-12 02:27:00,
2013-06-11 22:32:00,78.4,77.0,30.06,SE,135,2.9,5.4,94,0.00,,,0.45,Graphweather,2013-06-12 02:32:00,
2013-06-11 22:37:00,78.6,77.0,30.03,South,180,2.7,2.9,93,0.00,,,0.45,Graphweather,2013-06-12 02:37:00,
2013-06-11 22:42:00,78.6,77.0,30.03,SE,135,3.1,3.6,93,0.00,,,0.45,Graphweather,2013-06-12 02:42:00,
2013-06-11 22:48:00,78.4,77.0,30.03,East,90,2.9,9.4,93,0.00,,,0.45,Graphweather,2013-06-12 02:48:00,
2013-06-11 22:53:00,78.4,75.2,30.03,ESE,112,2.5,3.6,92,0.00,,,0.45,Graphweather,2013-06-12 02:53:00,
2013-06-11 22:58:00,78.3,77.0,30.03,ESE,112,2.9,2.9,93,0.00,,,0.45,Graphweather,2013-06-12 02:58:00,
2013-06-11 23:03:00,78.4,77.0,30.03,SE,135,2.7,0.0,93,0.00,,,0.45,Graphweather,2013-06-12 03:03:00,
2013-06-11 23:09:00,78.4,77.0,30.03,NNE,22,1.6,2.5,94,0.00,,,0.45,Graphweather,2013-06-12 03:09:00,
2013-06-11 23:14:00,78.3,77.0,30.03,ESE,112,2.0,2.5,94,0.00,,,0.45,Graphweather,2013-06-12 03:14:00,
2013-06-11 23:20:00,78.3,77.0,30.03,East,90,3.4,3.4,93,0.00,,,0.45,Graphweather,2013-06-12 03:20:00,
2013-06-11 23:25:00,78.4,77.0,30.06,ESE,112,2.5,2.5,94,0.00,,,0.45,Graphweather,2013-06-12 03:25:00,
2013-06-11 23:30:00,78.4,77.0,30.06,SE,135,3.4,4.9,94,0.00,,,0.45,Graphweather,2013-06-12 03:30:00,
2013-06-11 23:35:00,78.4,77.0,30.06,ENE,67,2.9,3.1,94,0.00,,,0.45,Graphweather,2013-06-12 03:35:00,
2013-06-11 23:40:00,78.4,77.0,30.06,East,90,2.9,3.8,94,0.00,,,0.45,Graphweather,2013-06-12 03:40:00,
2013-06-11 23:45:00,78.4,77.0,30.06,SSW,202,2.2,3.6,93,0.00,,,0.45,Graphweather,2013-06-12 03:45:00,
2013-06-11 23:50:00,78.4,77.0,30.06,SSE,157,2.5,2.9,94,0.00,,,0.45,Graphweather,2013-06-12 03:50:00,
2013-06-11 23:56:00,78.4,77.0,30.06,SSW,202,2.7,3.6,94,0.00,,,0.45,Graphweather,2013-06-12 03:56:00,